CAPE
136 40 0 0 0 0 0 1 0 0 0 0 0 0 0 0 0 0 0 0 0 0 0 0 0 0 0 0 19 67 106 150 199 200 194 187 209 202 167 115 95 47 0
2 0 0 0 0 0 0 0 0 0 0 0 0 0 0 0 0 0 0 0 0 0 0 0 0 0 0 0 0 0 8 122 139 187 170 151 146 166 152 100 57 47 38
0 0 0 0 0 0 0 0 0 0 0 0 0 0 0 0 0 0 0 0 0 0 0 0 0 0 0 0 0 0 0 0 16 150 163 134 155 167 162 147 62 31 39
12 0 0 0 0 0 0 0 0 0 0 0 0 0 0 0 0 0 0 0 0 0 0 0 0 0 0 0 0 0 0 0 0 0 34 96 53 70 152 188 186 69 27
6 8 0 0 11 9 0 0 0 0 0 0 0 0 0 0 0 0 0 0 0 0 0 0 0 0 0 0 0 0 0 0 0 0 0 0 19 33 17 115 218 117 80
0 0 0 0 14 18 3 0 0 0 0 0 0 0 0 0 0 0 0 0 0 0 0 0 0 0 0 0 0 0 0 0 0 0 0 1 2 47 56 6 31 166 192
0 0 0 0 2 7 10 23 19 5 0 0 0 0 0 0 0 0 0 0 0 0 0 0 0 0 0 0 0 0 0 0 0 0 0 0 0 0 2 70 40 11 21
0 0 0 0 0 0 0 0 16 19 22 7 0 0 0 0 2 0 0 0 0 0 0 0 0 0 0 0 0 0 0 0 0 0 0 0 0 0 0 0 26 46 23
0 0 0 0 0 0 0 0 0 0 0 11 58 2 0 15 33 22 1 0 0 0 0 0 0 0 0 0 0 0 0 0 0 0 0 0 0 0 0 0 0 3 33
0 0 0 0 0 0 0 0 0 0 0 0 18 50 32 16 20 24 8 0 0 0 0 0 0 0 0 0 0 0 0 0 0 0 0 0 0 0 0 0 0 0 19
0 0 0 0 0 0 0 0 0 0 0 0 12 25 18 20 4 6 12 2 0 0 0 0 0 0 0 0 0 0 0 0 0 0 0 0 0 0 0 0 0 0 0
0 0 0 0 0 0 0 0 0 0 0 1 0 0 0 0 0 1 0 5 13 0 0 0 0 0 0 0 0 0 0 0 0 0 0 0 0 0 0 0 0 1 0
0 0 0 0 0 0 0 1 5 9 3 4 0 0 1 2 1 2 1 0 0 0 0 0 0 0 0 0 0 0 0 0 0 0 0 0 0 0 0 0 0 0 1
0 0 0 0 2 6 19 16 2 0 5 5 10 3 2 4 1 1 1 0 0 5 5 5 2 1 0 0 0 0 0 0 0 0 0 0 0 0 0 0 0 0 0
0 0 1 1 0 0 2 1 2 2 2 3 6 4 4 9 9 3 3 3 5 5 0 1 4 2 0 0 0 0 0 0 0 0 0 0 0 0 0 0 0 0 0
8 2 0 0 1 3 7 4 2 0 2 0 0 0 0 1 9 12 7 4 2 0 0 0 0 0 0 0 0 0 0 0 0 0 0 0 0 0 0 0 0 0 0
3 2 1 4 8 7 2 3 5 5 3 2 1 1 0 1 1 0 0 1 0 0 0 0 0 0 0 0 0 0 0 0 0 0 0 0 0 0 0 0 0 0 0
16 10 8 9 5 7 2 1 4 2 0 0 0 0 0 0 0 0 0 0 0 0 0 0 0 0 0 0 1 1 0 0 0 1 1 0 0 0 0 0 0 0 0
12 11 17 19 18 7 10 4 1 0 2 0 0 0 0 0 0 0 0 0 0 0 0 1 0 0 0 0 0 0 1 1 1 0 0 0 0 0 0 0 0 0 0
9 10 5 6 4 0 0 1 2 3 1 0 0 0 0 0 0 0 0 0 0 0 0 0 0 0 0 0 0 0 0 0 0 0 0 0 0 0 0 0 0 0 0
0 0 0 0 0 0 0 0 0 0 5 5 3 2 0 0 0 0 0 0 0 0 0 0 0 0 0 0 1 1 1 2 3 7 5 8 5 4 0 0 0 0 0
0 0 0 0 0 0 0 0 0 0 0 0 1 1 1 0 0 0 0 0 0 0 0 3 3 2 1 1 1 2 4 4 5 10 6 7 7 7 10 12 8 3 0
0 0 0 0 0 0 0 0 0 0 0 0 0 1 0 0 0 0 2 1 1 2 1 2 4 4 3 1 0 1 4 5 6 5 6 15 16 11 15 12 6 0 0
0 0 0 0 0 0 0 0 0 0 0 1 3 1 0 0 1 1 2 1 1 3 7 4 2 2 2 1 4 9 11 14 13 6 9 7 11 6 19 18 10 0 3
0 1 0 0 0 0 0 0 0 0 1 2 2 3 4 2 1 1 3 6 7 6 4 0 0 0 0 0 1 3 15 15 11 8 7 6 11 13 16 15 12 9 2
1 1 1 2 3 0 1 3 2 2 5 7 7 6 1 2 2 1 3 6 7 5 3 12 8 15 0 0 0 2 9 11 16 17 6 8 7 6 8 16 15 16 1
CIN
-7 -3 -0 -0 -0 -0 -0 -0 -0 -0 -0 -0 -0 -0 -0 -0 -0 -0 -0 -0 -0 -0 -0 -0 -0 -0 -0 -0 -17 -6 -10 -19 -13 -22 -24 -9 -3 -7 -10 -12 -12 -31 -0
-2 -0 -0 -0 -0 -0 -0 -0 -0 -0 -0 -0 -0 -0 -0 -0 -0 -0 -0 -0 -0 -0 -0 -0 -0 -0 -0 -0 -0 -0 -10 -3 -16 -19 -20 -23 -11 -5 -6 -10 -19 -30 -28
-1 -0 -0 -0 -0 -0 -0 -0 -0 -0 -0 -0 -0 -0 -0 -0 -0 -0 -0 -0 -0 -0 -0 -0 -0 -0 -0 -0 -0 -0 -0 -0 -43 -2 -10 -27 -22 -18 -8 -8 -16 -43 -47
-56 -0 -0 -0 -0 -0 -0 -0 -0 -0 -0 -0 -0 -0 -0 -0 -0 -0 -0 -0 -0 -0 -0 -0 -0 -0 -0 -0 -0 -0 -0 -0 -0 -0 -31 -28 -53 -58 -26 -12 -7 -18 -29
-56 -59 -0 -0 -49 -46 -0 -0 -0 -0 -0 -0 -0 -0 -0 -0 -0 -0 -0 -0 -0 -0 -0 -0 -0 -0 -0 -0 -0 -0 -0 -0 -0 -0 -0 -4 -57 -44 -55 -11 -1 -9 -12
-0 -0 -0 -0 -52 -50 -39 -0 -0 -0 -0 -0 -0 -0 -0 -0 -0 -0 -0 -0 -0 -0 -0 -0 -0 -0 -0 -0 -0 -0 -0 -0 -0 -0 -0 -0 -5 -22 -71 -44 -25 -0 -0
-0 -0 -0 -0 -55 -45 -45 -56 -46 -33 -0 -0 -0 -0 -0 -0 -0 -0 -0 -0 -0 -0 -0 -0 -0 -0 -0 -0 -0 -0 -0 -0 -0 -0 -0 -0 -0 -0 -35 -0 -4 -41 -31
-0 -0 -0 -0 -0 -0 -0 -0 -65 -46 -17 -11 -0 -0 -0 -0 -1 -0 -0 -0 -0 -0 -0 -0 -0 -0 -0 -0 -0 -0 -0 -0 -0 -0 -0 -0 -0 -0 -0 -0 -2 -10 -7
-0 -0 -0 -0 -0 -0 -0 -0 -0 -0 -0 -3 -2 -0 -0 -4 -2 -7 -7 -0 -0 -0 -0 -0 -0 -0 -0 -0 -0 -0 -0 -0 -0 -0 -0 -0 -0 -0 -0 -0 -0 -10 -2
-0 -0 -0 -0 -0 -0 -0 -0 -0 -0 -0 -0 -2 -2 -3 -22 -32 -10 -17 -3 -0 -0 -0 -0 -0 -0 -0 -0 -0 -0 -0 -0 -0 -0 -0 -0 -0 -0 -0 -0 -0 -0 -0
-0 -0 -0 -0 -0 -0 -0 -0 -0 -0 -0 -0 -3 -2 -6 -2 -8 -29 -21 -6 -0 -0 -0 -0 -0 -0 -0 -0 -0 -0 -0 -0 -0 -0 -0 -0 -0 -0 -0 -0 -0 -0 -0
-0 -0 -0 -0 -0 -0 -0 -0 -0 -0 -0 -1 -0 -0 -0 -0 -0 -0 -0 -25 -33 -0 -1 -0 -0 -0 -0 -0 -0 -0 -0 -0 -0 -0 -0 -0 -0 -0 -0 -0 -0 -0 -0
-0 -0 -0 -0 -0 -0 -0 -0 -0 -0 -0 -0 -0 -0 -0 -0 -0 -0 -0 -0 -0 -0 -0 -0 -0 -0 -0 -0 -0 -0 -0 -0 -0 -0 -0 -0 -0 -0 -0 -0 -0 -0 -0
-0 -0 -0 -0 -0 -1 -1 -1 -0 -0 -0 -0 -0 -0 -0 -0 -0 -0 -0 -0 -0 -0 -0 -1 -2 -1 -0 -0 -0 -0 -0 -0 -0 -0 -0 -0 -0 -0 -0 -0 -0 -0 -0
-0 -0 -1 -1 -0 -0 -1 -0 -0 -0 -0 -0 -2 -1 -1 -0 -0 -0 -0 -1 -0 -0 -0 -1 -3 -3 -1 -1 -0 -0 -0 -0 -0 -0 -0 -0 -0 -0 -0 -0 -0 -0 -0
-0 -1 -0 -0 -0 -1 -0 -1 -0 -0 -0 -0 -0 -0 -0 -3 -2 -1 -2 -1 -3 -5 -0 -0 -0 -0 -0 -0 -0 -0 -0 -0 -0 -0 -0 -0 -0 -0 -0 -0 -0 -0 -0
-1 -1 -0 -0 -1 -0 -0 -0 -0 -1 -3 -2 -2 -2 -0 -0 -0 -0 -1 -3 -1 -2 -0 -0 -0 -0 -0 -0 -0 -0 -0 -0 -0 -0 -0 -0 -0 -0 -0 -0 -0 -0 -0
-0 -1 -1 -0 -0 -0 -2 -2 -2 -4 -1 -0 -0 -0 -0 -0 -0 -0 -0 -0 -0 -0 -2 -0 -0 -0 -0 -0 -2 -2 -0 -0 -0 -2 -8 -0 -0 -0 -0 -0 -0 -0 -0
-0 -0 -0 -0 -0 -2 -2 -2 -3 -1 -3 -2 -0 -0 -0 -0 -0 -0 -0 -0 -0 -0 -0 -2 -0 -0 -0 -0 -0 -2 -1 -2 -1 -0 -0 -0 -0 -0 -0 -0 -0 -0 -0
-1 -2 -2 -1 -1 -0 -0 -1 -2 -3 -3 -0 -0 -0 -0 -0 -0 -0 -0 -0 -0 -0 -0 -0 -0 -0 -0 -0 -0 -0 -0 -0 -4 -2 -1 -0 -1 -0 -0 -0 -0 -0 -0
-0 -0 -0 -0 -0 -0 -0 -0 -0 -0 -2 -2 -2 -1 -1 -0 -0 -0 -0 -0 -0 -0 -0 -0 -2 -0 -1 -2 -3 -3 -4 -4 -4 -3 -4 -3 -3 -3 -0 -0 -0 -0 -0
-0 -0 -0 -0 -0 -0 -0 -0 -0 -0 -0 -1 -4 -3 -2 -0 -0 -0 -0 -0 -0 -0 -2 -3 -2 -2 -3 -5 -6 -4 -3 -3 -2 -1 -4 -2 -1 -4 -2 -2 -2 -2 -0
-0 -0 -0 -0 -0 -0 -0 -0 -0 -0 -0 -0 -2 -3 -2 -0 -0 -0 -2 -2 -2 -2 -1 -1 -1 -1 -1 -4 -5 -4 -2 -2 -3 -5 -4 -1 -2 -3 -1 -2 -5 -7 -0
-0 -0 -1 -0 -0 -0 -0 -0 -0 -0 -1 -2 -2 -2 -2 -0 -1 -2 -2 -3 -2 -2 -2 -2 -3 -3 -3 -3 -3 -3 -4 -4 -1 -2 -1 -0 -2 -0 -0 -1 -3 -3 -4
-0 -2 -0 -0 -0 -0 -0 -0 -0 -1 -2 -2 -1 -2 -2 -2 -2 -0 -1 -1 -1 -2 -2 -0 -0 -0 -0 -1 -0 -2 -0 -1 -0 -2 -4 -4 -2 -1 -0 -1 -0 -0 -6
-3 -3 -2 -1 -1 -1 -2 -1 -1 -2 -2 -2 -1 -1 -3 -2 -0 -0 -0 -0 -0 -2 -5 -3 -3 -1 -0 -2 -0 -0 -0 -0 -1 -1 -2 -3 -3 -2 -0 -1 -0 -0 -1
Wind_Speed
24 25 26 26 26 25 25 26 26 26 24 22 21 20 20 21 21 22 22 23 23 23 23 24 24 24 24 23 23 23 22 24 27 28 33 35 36 32 29 29 28 28 27
25 26 26 26 25 25 25 25 26 25 24 23 22 21 21 21 21 21 21 21 23 23 23 24 23 23 24 24 25 25 26 25 25 26 28 31 37 37 35 34 32 30 30
26 27 27 26 26 26 25 24 24 24 24 23 24 22 22 22 22 22 22 22 19 21 23 24 24 24 24 24 25 26 28 28 28 27 26 28 36 38 39 39 37 34 31
26 26 26 27 27 27 27 26 26 26 26 26 26 25 23 23 23 23 22 22 22 22 21 23 23 24 25 25 26 27 29 31 31 31 31 30 32 35 38 40 39 38 36
26 26 27 27 27 27 26 26 26 26 27 26 26 26 25 26 25 25 24 22 22 23 23 22 23 25 26 28 29 30 30 30 31 32 32 34 33 34 36 37 39 40 40
30 29 30 30 29 29 28 28 29 29 29 30 30 28 27 27 26 25 24 24 23 23 24 23 23 24 27 30 31 32 33 33 33 33 33 31 33 34 35 35 38 41 40
34 35 34 33 32 33 33 33 34 34 34 32 35 35 34 31 29 28 26 26 25 24 25 24 25 26 26 28 31 33 34 34 35 36 35 33 33 34 35 40 40 35 40
38 36 37 37 37 38 37 36 37 38 37 34 37 38 42 39 32 29 29 28 26 25 26 26 26 26 28 29 29 32 34 35 35 35 36 35 34 34 35 38 41 38 39
39 39 39 39 39 39 40 41 40 41 44 40 35 37 43 44 40 33 29 26 26 26 27 27 29 28 28 29 30 29 31 35 36 35 35 36 35 35 36 37 38 42 40
39 39 40 40 40 40 41 42 41 42 42 45 41 38 39 44 51 48 31 30 28 28 27 29 29 31 30 31 30 31 32 33 34 35 35 35 36 37 37 38 37 38 38
39 40 40 41 41 41 41 42 42 41 41 42 42 41 40 40 41 44 47 34 29 28 29 29 31 32 32 33 33 30 30 31 31 32 34 36 37 37 36 37 39 38 39
43 42 41 39 39 39 39 38 36 37 36 36 36 35 37 36 39 39 43 45 41 30 28 30 32 33 33 33 32 31 32 31 31 31 31 31 33 35 37 38 38 39 39
45 44 42 39 37 36 35 33 34 33 33 33 32 33 32 33 34 36 37 40 40 38 39 34 33 34 34 32 33 30 30 31 31 31 31 31 31 32 33 35 36 37 39
43 40 37 36 36 35 34 33 32 33 33 32 31 30 31 31 29 28 29 32 37 38 40 41 33 34 33 33 31 29 33 31 32 32 31 31 31 31 32 34 35 36 38
39 36 36 35 33 32 32 32 30 31 31 31 31 30 29 28 28 29 29 32 35 39 40 36 36 32 33 33 32 33 33 29 30 34 35 33 32 32 32 33 36 37 39
36 35 33 31 31 31 31 30 31 27 25 27 28 29 28 27 27 27 30 32 35 38 43 40 39 37 36 36 35 37 37 38 35 35 36 36 36 36 36 35 36 37 39
34 32 31 30 32 33 32 28 25 24 25 27 28 32 32 32 31 31 32 34 37 38 42 41 38 38 38 38 38 39 40 40 39 35 36 39 41 42 42 41 41 40 39
33 33 32 32 32 28 27 26 27 27 28 31 33 34 35 36 35 32 32 34 36 36 39 43 39 39 38 37 38 40 40 39 39 37 37 37 40 43 45 44 43 43 43
34 32 31 29 28 29 30 28 27 28 32 35 35 34 34 33 33 33 33 34 35 35 36 38 40 38 38 37 39 40 40 40 40 41 39 37 40 41 41 42 44 44 45
33 32 32 32 32 32 32 31 32 33 34 34 33 31 31 32 33 35 35 36 36 37 37 38 39 40 38 37 39 42 43 41 43 41 41 42 42 40 40 41 43 46 46
33 32 32 32 32 32 32 33 34 33 32 33 34 33 32 33 34 36 38 39 38 37 37 37 37 39 38 37 38 39 43 42 42 41 42 43 41 39 40 44 46 45 47
33 33 33 33 34 33 32 34 35 36 36 36 37 37 37 36 35 34 32 33 34 37 38 39 38 38 38 37 35 35 37 38 42 36 40 43 41 42 41 40 39 39 40
34 35 35 34 35 34 33 36 38 38 38 38 38 39 39 38 36 36 35 32 30 31 33 34 36 33 34 33 33 34 34 34 36 34 36 39 35 38 38 39 40 40 40
35 35 34 34 35 34 35 36 38 37 36 37 37 38 39 39 37 35 35 34 32 29 26 25 25 28 30 33 33 35 37 39 38 35 34 38 34 37 38 39 40 40 39
34 33 32 34 35 35 35 37 38 37 36 37 37 37 38 38 37 36 35 35 32 30 28 20 17 23 28 30 31 34 34 33 37 37 34 36 33 34 36 38 38 38 38
32 32 33 34 35 34 34 35 34 33 36 36 36 36 35 36 37 35 34 33 35 39 38 32 16 15 13 16 21 26 30 32 33 33 31 35 35 32 34 30 33 35 38
Wind_Direction
349 346 342 340 337 338 336 334 332 331 331 331 329 326 323 321 319 315 313 313 313 313 315 313 313 310 306 304 300 296 295 287 278 271 262 258 254 257 258 257 258 257 255
350 346 344 343 340 338 336 334 332 330 329 327 325 323 320 318 317 316 313 312 310 311 312 313 313 311 306 301 296 292 289 289 286 278 273 267 258 256 258 257 257 257 255
349 347 346 344 342 341 338 335 333 330 325 323 319 317 315 313 312 311 310 309 311 311 311 309 309 308 307 303 298 292 287 285 283 283 280 273 262 258 257 257 256 256 256
346 345 344 342 340 337 335 333 330 327 324 321 317 314 312 310 308 306 304 305 304 306 308 309 308 305 303 301 298 294 289 283 281 279 278 277 272 266 262 258 256 255 255
344 341 339 337 336 333 330 327 324 322 319 317 314 311 309 306 304 303 301 300 300 301 304 305 304 302 300 298 295 292 290 288 282 279 279 275 273 271 268 262 258 256 255
341 338 334 332 332 328 326 323 318 316 311 311 309 306 304 301 300 298 297 296 296 297 299 301 302 299 298 295 293 290 287 285 283 281 278 277 276 271 269 268 264 259 258
337 334 331 329 328 324 321 319 316 311 308 304 303 300 298 296 294 292 291 289 289 290 293 297 300 300 299 298 294 291 288 285 282 278 278 277 276 273 271 266 262 262 262
333 332 329 326 324 322 320 317 315 312 307 303 298 298 295 293 289 290 288 285 283 284 287 290 294 297 298 298 295 294 289 287 283 280 277 275 275 274 272 270 269 268 267
331 329 327 325 323 321 318 316 314 311 306 303 297 292 295 289 291 288 285 284 282 283 285 287 291 294 295 296 295 293 292 287 284 280 279 276 274 273 273 272 273 269 269
328 327 326 325 322 321 318 316 315 311 307 302 299 294 286 288 285 286 284 282 279 279 283 286 288 290 290 293 293 292 292 288 286 280 278 278 276 274 272 272 273 272 270
329 328 326 324 323 322 320 318 316 313 308 303 299 298 293 290 285 281 277 280 280 279 282 285 288 288 288 290 289 289 292 289 288 285 280 278 276 274 273 273 271 272 271
327 326 326 326 325 324 324 324 323 323 320 316 311 306 300 294 292 286 280 276 275 279 281 285 286 287 286 288 288 287 289 287 286 286 285 282 278 276 274 272 272 271 271
326 326 327 327 326 328 328 327 325 323 323 319 316 310 309 302 296 292 289 284 281 277 279 285 284 286 285 285 287 284 286 285 285 285 286 284 282 280 276 275 273 271 271
327 328 328 328 327 326 325 326 328 327 325 322 316 312 308 303 301 297 294 289 284 282 281 282 284 283 285 284 285 287 285 281 281 284 284 284 282 282 279 276 274 274 272
328 328 328 327 330 331 331 328 328 326 326 324 320 316 311 308 303 297 291 289 286 284 282 284 284 284 284 283 284 284 283 283 280 281 281 281 281 281 281 278 276 274 273
331 330 332 331 331 331 331 330 326 326 323 323 320 316 316 314 309 305 296 290 286 284 282 283 284 285 285 283 283 282 281 279 281 280 277 277 278 278 278 278 277 276 274
333 332 332 331 331 331 329 327 327 325 323 320 319 311 310 308 307 304 299 292 286 286 285 285 286 285 285 284 285 283 280 278 279 277 276 275 275 275 276 275 274 274 274
334 334 334 332 330 331 331 329 325 321 319 317 314 312 309 306 304 304 300 296 293 291 289 286 288 288 287 287 286 284 283 281 280 281 278 274 275 275 273 273 272 271 271
336 335 334 334 334 332 328 326 324 321 317 314 313 313 312 309 305 303 300 298 296 294 292 290 288 289 289 288 286 284 282 282 281 280 279 278 276 276 272 271 271 271 269
337 336 334 331 330 328 326 323 321 318 316 314 314 314 312 309 305 301 299 297 296 294 292 291 289 288 288 288 285 282 281 281 278 278 278 276 276 275 271 270 270 268 268
339 338 337 335 333 330 329 326 324 322 319 316 313 312 311 308 305 302 298 296 296 295 293 291 290 289 288 288 286 285 282 282 280 279 277 276 276 275 273 270 268 267 266
341 340 339 336 333 331 331 328 324 319 316 313 310 308 307 306 305 304 303 300 298 295 292 291 291 290 289 290 290 288 286 283 280 282 278 275 276 274 273 273 271 268 266
342 340 338 337 335 332 332 327 324 319 315 311 309 307 304 303 304 302 302 302 301 298 294 294 292 292 292 292 291 289 288 286 284 284 282 278 279 276 275 274 272 269 267
342 342 341 339 337 335 333 330 326 322 318 313 309 306 303 300 301 302 301 301 301 302 302 299 296 295 292 290 288 286 282 279 280 281 281 279 281 278 277 276 273 271 268
345 345 344 342 339 336 335 332 328 324 319 314 310 306 302 298 297 298 297 298 303 304 305 300 290 296 293 291 288 287 286 285 281 278 278 278 282 282 280 276 273 271 268
348 347 345 344 341 339 339 337 336 332 322 316 312 306 302 296 291 293 295 298 299 282 284 299 305 307 260 287 288 285 286 284 283 283 279 277 279 283 282 284 277 272 268